#timestamp,LO_Frequency,Hit 
1497794415.5,286047031.4,N
1497794435.3,286047031.6,N
1497794455.2,286047029.1,N
1497794475.0,286047027.4,N
1497794475.9,286047027.4,N
1497794495.7,286047026.9,N
1497794515.6,286047028.2,N
1497794535.4,286047025.3,N
1497794555.2,286047026.0,N
1497794575.1,286047024.8,N
1497794576.0,286047024.8,N
1497794595.8,286047024.4,N
1497794615.6,286047022.3,N
1497794635.5,286047022.8,N
1497794655.3,286047022.8,N
1497794675.1,286047023.2,N
1497794695.9,286047022.4,N
1497794715.7,286047022.3,N
1497794735.5,286047022.5,N
1497794755.4,286047022.5,N
1497794775.2,286047023.0,N
1497794795.0,286047023.3,N
1497794795.9,286047023.3,N
1497794815.8,286047023.1,N
1497794835.6,286047021.2,N
1497794855.4,286047022.8,N
1497794875.3,286047023.0,N
1497794895.1,286047023.4,N
1497794896.0,286047023.4,N
1497794915.8,286047020.9,N
1497794935.6,286047020.6,N
1497794955.5,286047023.1,N
1497794975.3,286047022.3,N
1497794995.1,286047022.3,N
1497795015.9,286047026.5,N
1497795035.7,286047025.5,N
1497795055.5,286047025.4,N
1497795075.4,286047026.2,N
1497795095.2,286047026.1,N
1497795115.0,286047025.7,N
1497795115.9,286047025.7,N
1497795135.8,286047024.9,N
1497795155.6,286047026.7,N
1497795175.4,286047026.8,N
1497795195.3,286047023.8,N
1497795215.1,286047024.9,N
1497795216.0,286047024.9,N
1497795235.8,286047023.0,N
1497795255.7,286047020.5,N
1497795275.5,286047023.1,N
1497795295.3,286047022.8,N
1497795315.2,286047023.0,N
1497795335.9,286047023.6,N
1497795355.7,286047023.1,N
1497795375.5,286047023.6,N
1497795395.4,286047020.9,N
1497795415.2,286047020.8,N
1497795435.0,286047020.7,N
1497795435.9,286047020.7,N
1497795455.8,286047023.6,N
1497795475.6,286047023.6,N
1497795495.4,286047021.0,N
1497795515.3,286047022.0,N
1497795535.1,286047019.0,N
1497795555.8,286047021.5,N
1497795575.7,286047022.0,N
1497795595.5,286047020.0,N
1497795615.3,286047016.4,N
1497795635.2,286047014.2,N
1497795655.9,286047013.0,N
1497795675.7,286047015.4,N
1497795695.6,286047015.4,N
1497795715.4,286047013.0,N
1497795735.2,286047012.9,N
1497795755.0,286047013.0,N
1497795755.9,286047013.0,N
1497795775.8,286047015.1,N
1497795795.6,286047012.7,N
1497795815.4,286047013.4,N
1497795835.3,286047011.2,N
1497795855.1,286047010.5,N
1497795875.8,286047010.4,N
1497795895.7,286047009.9,N
1497795915.5,286047007.8,N
1497795935.3,286047009.1,N
1497795955.2,286047006.3,N
1497795975.9,286047006.1,N
1497795995.7,286047006.3,N
1497796015.6,286047004.9,N
1497796035.4,286047007.6,N
1497796055.2,286047002.9,N
1497796075.0,286047005.4,N
1497796076.0,286047005.4,N
1497796095.8,286047003.6,N
1497796115.6,286047001.6,N
1497796135.4,286047001.6,N
1497796155.3,286047001.5,N
1497796175.1,286047001.3,N
1497796195.8,286047004.3,N
1497796215.7,286047001.9,N
1497796235.5,286047002.1,N
1497796255.3,286047004.4,N
1497796275.2,286047002.2,N
1497796295.9,286047002.6,N
1497796315.7,286047002.3,N
1497796335.6,286047000.1,N
1497796355.4,286046999.8,N
1497796375.2,286047002.8,N
1497796395.1,286047002.6,N
1497796396.0,286047002.6,N
1497796415.8,286046999.8,N
1497796435.6,286047000.2,N
1497796455.5,286047000.7,N
1497796475.3,286047000.9,N
1497796495.1,286046999.7,N
1497796515.8,286047002.8,N
1497796535.7,286047000.1,N
1497796555.5,286046998.5,N
1497796575.3,286046999.4,N
1497796595.2,286046999.0,N
1497796615.9,286046999.4,N
1497796635.7,286046999.1,N
1497796655.6,286046997.9,N
1497796675.4,286046994.9,N
1497796695.2,286046993.7,N
1497796715.1,286046993.8,N
1497796716.0,286046993.8,N
1497796735.8,286046994.2,N
1497796755.6,286046991.7,N
1497796775.5,286046994.1,N
1497796795.3,286046994.4,N
1497796815.1,286046994.4,N
1497796835.8,286046992.1,N
1497796855.7,286046990.1,N
1497796875.5,286046993.1,N
1497796895.3,286046992.6,N
1497796915.2,286046992.7,N
1497796935.0,286046992.7,N
1497796935.9,286046992.7,N
1497796955.7,286046988.6,N
1497796975.6,286046991.4,N
1497796995.4,286046991.4,N
1497797015.2,286046991.5,N
1497797035.1,286046988.8,N
1497797036.0,286046988.8,N
1497797055.8,286046989.6,N
1497797075.6,286046989.1,N
1497797095.5,286046989.8,N
1497797115.3,286046987.4,N
1497797135.1,286046988.0,N
1497797155.9,286046985.7,N
1497797175.7,286046986.5,N
1497797195.5,286046983.9,N
1497797215.4,286046982.1,N
1497797235.2,286046983.2,N
1497797255.0,286046980.7,N
1497797255.9,286046980.7,N
1497797275.8,286046980.7,N
1497797295.6,286046981.1,N
1497797315.4,286046979.3,N
1497797335.3,286046979.3,N
1497797355.1,286046980.0,N
1497797356.0,286046980.0,N
1497797375.6,286046977.4,N
1497797395.4,286046980.3,N
1497797415.3,286046977.7,N
1497797435.1,286046980.3,N
1497797455.8,286046977.6,N
1497797475.7,286046978.4,N
1497797495.5,286046976.7,N
1497797515.3,286046975.6,N
1497797535.2,286046974.7,N
1497797555.9,286046974.9,N
1497797575.7,286046974.8,N
1497797595.6,286046975.0,N
1497797615.4,286046972.9,N
1497797635.2,286046973.3,N
1497797655.1,286046970.9,N
1497797656.0,286046970.9,N
1497797675.8,286046971.9,N
1497797695.6,286046972.0,N
1497797715.5,286046971.6,N
1497797735.3,286046972.1,N
1497797755.1,286046971.0,N
1497797775.8,286046971.3,N
1497797795.7,286046973.8,N
1497797815.5,286046971.1,N
1497797835.3,286046972.9,N
1497797855.2,286046972.8,N
1497797875.9,286046973.2,N
1497797895.7,286046974.0,N
1497797915.6,286046973.9,N
1497797935.4,286046971.5,N
1497797955.2,286046971.4,N
1497797975.1,286046971.8,N
1497797976.0,286046971.8,N
1497797995.8,286046971.8,N
